Location: Mauna Kea VIS
(19.7591°N, 155.4561°W)
Time: 14:15:50
(UTC-10:00)

Hubble Space Telescope - Pass Details

Date: 13 December 2025
Orbit: 479 x 481 km, 28.5° (Epoch: 16 January)

Event Time Altitude Azimuth Distance (km) Brightness Sun altitude
Rises 18:15:34 0° 293° (WNW) 2,523 5.0 -7.5°
Reaches altitude 10° 18:18:10 10° 309° (NW) 1,644 3.7 -8.0°
Maximum altitude 18:21:05 21° 0° (N) 1,123 2.2 -8.7°
Enters shadow 18:23:48 11° 49° (NE) 1,582 2.6 -9.3°
